QPF
0.00 0.00 0.00 0.00 0.00 0.00 0.00 0.00 0.00 0.00 0.00 0.02 0.07 0.13 0.19 0.26 0.15 0.04 0.00 0.00 0.00 0.00 0.01 0.05 0.06 0.05 0.04 0.04 0.03 0.02 0.02 0.01 0.01 0.00 0.00 0.00 0.00 0.00 0.01 0.01 0.00 0.00 0.00 0.00
0.00 0.00 0.00 0.00 0.00 0.00 0.00 0.00 0.00 0.00 0.00 0.01 0.01 0.04 0.09 0.13 0.10 0.04 0.01 0.00 0.00 0.00 0.02 0.05 0.05 0.04 0.04 0.04 0.04 0.04 0.03 0.02 0.01 0.00 0.00 0.00 0.00 0.00 0.00 0.00 0.00 0.00 0.00 0.00
0.00 0.00 0.00 0.00 0.00 0.00 0.00 0.00 0.00 0.00 0.01 0.01 0.02 0.03 0.04 0.08 0.10 0.07 0.02 0.00 0.00 0.01 0.03 0.04 0.05 0.06 0.07 0.07 0.07 0.05 0.03 0.02 0.02 0.01 0.01 0.01 0.00 0.00 0.00 0.00 0.00 0.00 0.00 0.00
0.00 0.00 0.00 0.00 0.00 0.00 0.00 0.00 0.00 0.00 0.00 0.00 0.00 0.01 0.00 0.01 0.03 0.04 0.02 0.01 0.01 0.02 0.04 0.07 0.08 0.10 0.12 0.11 0.09 0.06 0.05 0.04 0.03 0.02 0.01 0.00 0.00 0.00 0.00 0.00 0.00 0.00 0.00 0.00
0.00 0.00 0.00 0.00 0.00 0.00 0.00 0.00 0.00 0.00 0.00 0.00 0.00 0.00 0.00 0.00 0.00 0.01 0.02 0.02 0.04 0.06 0.10 0.12 0.14 0.16 0.15 0.12 0.09 0.07 0.06 0.04 0.02 0.01 0.00 0.00 0.00 0.00 0.00 0.00 0.00 0.00 0.00 0.01
0.00 0.00 0.00 0.01 0.00 0.00 0.00 0.02 0.01 0.00 0.00 0.00 0.00 0.02 0.02 0.00 0.00 0.01 0.03 0.06 0.08 0.11 0.14 0.15 0.16 0.14 0.12 0.10 0.07 0.06 0.03 0.01 0.01 0.00 0.00 0.00 0.00 0.00 0.00 0.01 0.01 0.00 0.00 0.01
0.01 0.02 0.01 0.01 0.00 0.00 0.01 0.04 0.01 0.00 0.01 0.02 0.02 0.01 0.00 0.00 0.00 0.01 0.02 0.04 0.06 0.09 0.12 0.13 0.12 0.09 0.07 0.05 0.03 0.02 0.01 0.00 0.00 0.00 0.00 0.00 0.00 0.00 0.01 0.01 0.01 0.00 0.01 0.01
0.04 0.05 0.06 0.02 0.00 0.00 0.02 0.01 0.00 0.00 0.02 0.04 0.02 0.00 0.00 0.00 0.00 0.01 0.02 0.03 0.05 0.06 0.07 0.06 0.04 0.03 0.03 0.02 0.01 0.00 0.00 0.00 0.00 0.00 0.00 0.00 0.00 0.01 0.01 0.01 0.00 0.00 0.01 0.01
0.06 0.06 0.05 0.01 0.00 0.00 0.00 0.00 0.00 0.00 0.03 0.05 0.01 0.00 0.00 0.00 0.00 0.01 0.02 0.02 0.02 0.02 0.02 0.02 0.02 0.02 0.01 0.01 0.00 0.00 0.00 0.00 0.00 0.00 0.00 0.00 0.00 0.01 0.00 0.00 0.00 0.00 0.01 0.01
0.00 0.00 0.00 0.00 0.00 0.00 0.00 0.00 0.00 0.01 0.05 0.03 0.01 0.00 0.00 0.00 0.01 0.01 0.01 0.01 0.01 0.01 0.01 0.01 0.01 0.01 0.00 0.00 0.00 0.00 0.00 0.00 0.00 0.01 0.00 0.00 0.00 0.00 0.01 0.00 0.00 0.01 0.01 0.01
0.01 0.01 0.01 0.01 0.01 0.00 0.00 0.01 0.02 0.03 0.04 0.02 0.00 0.01 0.01 0.01 0.01 0.01 0.01 0.01 0.01 0.01 0.01 0.01 0.00 0.00 0.00 0.00 0.00 0.00 0.00 0.00 0.00 0.00 0.01 0.01 0.01 0.00 0.00 0.01 0.00 0.00 0.01 0.00
0.04 0.05 0.06 0.05 0.03 0.02 0.04 0.05 0.05 0.04 0.02 0.01 0.01 0.01 0.01 0.02 0.01 0.01 0.01 0.01 0.01 0.01 0.00 0.00 0.00 0.00 0.00 0.00 0.00 0.00 0.00 0.00 0.00 0.00 0.00 0.01 0.01 0.01 0.00 0.00 0.00 0.00 0.00 0.00
0.02 0.02 0.04 0.04 0.03 0.05 0.07 0.06 0.05 0.04 0.02 0.01 0.01 0.01 0.01 0.02 0.01 0.01 0.00 0.00 0.00 0.00 0.00 0.00 0.00 0.00 0.00 0.00 0.00 0.00 0.00 0.00 0.00 0.00 0.00 0.01 0.01 0.01 0.01 0.01 0.00 0.00 0.00 0.00
0.02 0.03 0.05 0.05 0.06 0.07 0.06 0.04 0.03 0.03 0.02 0.01 0.01 0.01 0.01 0.01 0.00 0.00 0.00 0.00 0.00 0.00 0.00 0.00 0.00 0.00 0.00 0.00 0.00 0.00 0.00 0.00 0.00 0.00 0.00 0.00 0.01 0.01 0.01 0.02 0.02 0.02 0.01 0.00
0.03 0.04 0.05 0.06 0.08 0.09 0.08 0.05 0.03 0.03 0.02 0.02 0.01 0.01 0.01 0.00 0.00 0.00 0.00 0.00 0.00 0.00 0.00 0.00 0.00 0.00 0.00 0.00 0.00 0.00 0.00 0.00 0.00 0.00 0.00 0.00 0.00 0.01 0.01 0.01 0.01 0.01 0.01 0.01
0.04 0.04 0.05 0.06 0.07 0.08 0.07 0.05 0.04 0.03 0.02 0.01 0.01 0.01 0.01 0.00 0.00 0.00 0.00 0.00 0.00 0.00 0.00 0.00 0.00 0.00 0.00 0.00 0.00 0.00 0.00 0.00 0.00 0.00 0.00 0.00 0.00 0.00 0.01 0.01 0.01 0.01 0.01 0.01
0.05 0.06 0.06 0.06 0.06 0.06 0.05 0.03 0.02 0.01 0.01 0.01 0.01 0.00 0.00 0.00 0.00 0.00 0.00 0.00 0.00 0.00 0.00 0.00 0.00 0.00 0.00 0.00 0.00 0.00 0.00 0.00 0.00 0.00 0.00 0.00 0.00 0.00 0.00 0.00 0.00 0.01 0.01 0.01
0.05 0.05 0.05 0.05 0.04 0.03 0.02 0.01 0.01 0.01 0.01 0.00 0.00 0.00 0.00 0.00 0.00 0.00 0.00 0.00 0.00 0.00 0.00 0.00 0.00 0.00 0.00 0.00 0.00 0.00 0.00 0.00 0.00 0.00 0.00 0.00 0.00 0.00 0.00 0.00 0.00 0.00 0.00 0.00
0.02 0.02 0.02 0.02 0.01 0.01 0.01 0.00 0.00 0.00 0.00 0.00 0.00 0.00 0.00 0.00 0.00 0.00 0.00 0.00 0.00 0.00 0.00 0.00 0.00 0.00 0.00 0.00 0.00 0.00 0.00 0.00 0.00 0.00 0.00 0.00 0.00 0.00 0.00 0.00 0.00 0.00 0.00 0.00
0.00 0.00 0.00 0.00 0.00 0.00 0.00 0.00 0.00 0.00 0.00 0.00 0.00 0.00 0.00 0.00 0.00 0.00 0.00 0.00 0.00 0.00 0.00 0.00 0.00 0.00 0.00 0.00 0.00 0.00 0.00 0.00 0.00 0.00 0.00 0.00 0.00 0.00 0.00 0.00 0.00 0.00 0.00 0.00
0.00 0.00 0.00 0.00 0.00 0.00 0.00 0.00 0.00 0.00 0.00 0.00 0.00 0.00 0.00 0.00 0.00 0.00 0.00 0.00 0.00 0.00 0.00 0.00 0.00 0.00 0.00 0.00 0.00 0.00 0.00 0.00 0.00 0.00 0.00 0.00 0.00 0.00 0.00 0.00 0.00 0.00 0.00 0.00
0.00 0.00 0.00 0.00 0.00 0.00 0.00 0.00 0.00 0.00 0.00 0.00 0.00 0.00 0.00 0.00 0.00 0.00 0.00 0.00 0.00 0.00 0.00 0.00 0.00 0.00 0.00 0.00 0.00 0.00 0.00 0.00 0.00 0.00 0.00 0.00 0.00 0.00 0.00 0.00 0.00 0.00 0.00 0.00
0.01 0.00 0.00 0.00 0.00 0.00 0.00 0.00 0.00 0.00 0.00 0.00 0.00 0.00 0.00 0.00 0.00 0.00 0.00 0.00 0.00 0.00 0.00 0.00 0.00 0.00 0.00 0.00 0.00 0.00 0.00 0.00 0.00 0.00 0.00 0.00 0.00 0.00 0.00 0.00 0.00 0.00 0.00 0.00
0.02 0.01 0.00 0.00 0.00 0.00 0.00 0.00 0.00 0.00 0.00 0.00 0.00 0.00 0.00 0.00 0.00 0.00 0.00 0.00 0.00 0.00 0.00 0.00 0.00 0.00 0.00 0.00 0.00 0.00 0.00 0.00 0.00 0.00 0.00 0.00 0.00 0.00 0.00 0.00 0.00 0.00 0.00 0.00
0.03 0.01 0.00 0.00 0.00 0.00 0.00 0.00 0.00 0.00 0.00 0.00 0.00 0.00 0.00 0.00 0.00 0.00 0.00 0.00 0.00 0.00 0.00 0.00 0.00 0.00 0.00 0.00 0.00 0.00 0.00 0.00 0.00 0.00 0.00 0.00 0.00 0.00 0.00 0.00 0.00 0.00 0.00 0.00
0.04 0.02 0.01 0.01 0.00 0.00 0.00 0.00 0.00 0.00 0.00 0.00 0.00 0.00 0.00 0.00 0.00 0.00 0.00 0.00 0.00 0.00 0.00 0.00 0.00 0.00 0.00 0.00 0.00 0.00 0.00 0.00 0.00 0.00 0.00 0.00 0.00 0.00 0.00 0.00 0.00 0.00 0.00 0.00
0.11 0.07 0.04 0.04 0.02 0.00 0.00 0.00 0.00 0.00 0.00 0.00 0.00 0.00 0.00 0.00 0.00 0.00 0.00 0.00 0.00 0.00 0.00 0.00 0.00 0.00 0.00 0.00 0.00 0.00 0.00 0.00 0.00 0.00 0.00 0.00 0.00 0.00 0.00 0.00 0.00 0.00 0.00 0.00
MSLP
1007.21 1006.92 1006.65 1006.44 1006.29 1006.21 1006.18 1006.18 1006.19 1006.20 1006.21 1006.25 1006.35 1006.55 1006.90 1007.41 1008.10 1008.96 1009.96 1011.05 1012.18 1013.28 1014.31 1015.23 1016.03 1016.68 1017.20 1017.60 1017.90 1018.11 1018.25 1018.34 1018.38 1018.39 1018.37 1018.36 1018.35 1018.38 1018.44 1018.54 1018.68 1018.85 1019.02 1019.17
1008.09 1007.74 1007.37 1007.01 1006.71 1006.47 1006.33 1006.28 1006.31 1006.42 1006.60 1006.85 1007.19 1007.61 1008.14 1008.78 1009.53 1010.38 1011.30 1012.28 1013.28 1014.24 1015.16 1015.99 1016.71 1017.33 1017.83 1018.21 1018.48 1018.65 1018.74 1018.76 1018.72 1018.65 1018.57 1018.51 1018.47 1018.49 1018.57 1018.70 1018.88 1019.09 1019.31 1019.50
1008.88 1008.51 1008.08 1007.64 1007.24 1006.92 1006.72 1006.65 1006.72 1006.93 1007.26 1007.70 1008.24 1008.85 1009.54 1010.28 1011.08 1011.91 1012.76 1013.63 1014.49 1015.32 1016.10 1016.82 1017.46 1018.00 1018.44 1018.78 1019.00 1019.13 1019.16 1019.12 1019.02 1018.90 1018.77 1018.68 1018.64 1018.66 1018.76 1018.92 1019.13 1019.37 1019.61 1019.81
1009.52 1009.17 1008.73 1008.26 1007.82 1007.48 1007.26 1007.21 1007.35 1007.66 1008.13 1008.73 1009.44 1010.21 1011.02 1011.84 1012.66 1013.47 1014.25 1015.01 1015.74 1016.42 1017.07 1017.65 1018.18 1018.63 1018.99 1019.25 1019.41 1019.48 1019.46 1019.38 1019.25 1019.10 1018.97 1018.88 1018.85 1018.89 1019.01 1019.19 1019.42 1019.66 1019.88 1020.06
1010.00 1009.68 1009.26 1008.81 1008.38 1008.05 1007.87 1007.87 1008.08 1008.49 1009.08 1009.82 1010.66 1011.55 1012.46 1013.34 1014.17 1014.94 1015.66 1016.30 1016.90 1017.44 1017.93 1018.38 1018.78 1019.11 1019.37 1019.56 1019.65 1019.67 1019.62 1019.52 1019.39 1019.26 1019.15 1019.09 1019.10 1019.18 1019.32 1019.52 1019.74 1019.95 1020.13 1020.26
1010.31 1010.02 1009.64 1009.23 1008.85 1008.57 1008.45 1008.52 1008.82 1009.32 1010.02 1010.86 1011.80 1012.77 1013.74 1014.65 1015.47 1016.21 1016.84 1017.39 1017.85 1018.26 1018.61 1018.92 1019.18 1019.40 1019.56 1019.67 1019.71 1019.70 1019.64 1019.55 1019.46 1019.37 1019.33 1019.33 1019.40 1019.52 1019.69 1019.89 1020.09 1020.27 1020.39 1020.43
1010.48 1010.21 1009.88 1009.53 1009.22 1009.01 1008.96 1009.12 1009.49 1010.07 1010.84 1011.76 1012.75 1013.78 1014.76 1015.68 1016.48 1017.17 1017.73 1018.18 1018.53 1018.81 1019.03 1019.21 1019.36 1019.47 1019.55 1019.59 1019.60 1019.58 1019.55 1019.50 1019.47 1019.47 1019.51 1019.60 1019.74 1019.92 1020.12 1020.32 1020.50 1020.62 1020.67 1020.63
1010.57 1010.32 1010.03 1009.74 1009.51 1009.38 1009.42 1009.64 1010.08 1010.72 1011.53 1012.48 1013.49 1014.52 1015.50 1016.39 1017.16 1017.78 1018.27 1018.64 1018.89 1019.07 1019.19 1019.27 1019.32 1019.36 1019.38 1019.39 1019.39 1019.39 1019.40 1019.42 1019.47 1019.57 1019.70 1019.89 1020.10 1020.34 1020.58 1020.78 1020.93 1021.01 1020.99 1020.87
1010.63 1010.41 1010.17 1009.95 1009.79 1009.74 1009.85 1010.13 1010.61 1011.27 1012.09 1013.03 1014.03 1015.02 1015.96 1016.80 1017.51 1018.07 1018.50 1018.79 1018.98 1019.09 1019.14 1019.15 1019.15 1019.14 1019.13 1019.13 1019.15 1019.19 1019.25 1019.35 1019.49 1019.68 1019.92 1020.19 1020.48 1020.77 1021.03 1021.24 1021.37 1021.41 1021.34 1021.16
1010.75 1010.56 1010.39 1010.23 1010.15 1010.17 1010.33 1010.65 1011.15 1011.80 1012.59 1013.48 1014.41 1015.33 1016.19 1016.96 1017.60 1018.11 1018.47 1018.72 1018.86 1018.93 1018.95 1018.94 1018.92 1018.90 1018.90 1018.92 1018.96 1019.05 1019.17 1019.34 1019.56 1019.82 1020.13 1020.47 1020.82 1021.14 1021.43 1021.64 1021.76 1021.78 1021.67 1021.45
1010.99 1010.86 1010.74 1010.67 1010.66 1010.74 1010.94 1011.28 1011.76 1012.37 1013.09 1013.89 1014.72 1015.54 1016.30 1016.97 1017.53 1017.97 1018.30 1018.52 1018.64 1018.71 1018.73 1018.73 1018.73 1018.74 1018.76 1018.81 1018.89 1019.01 1019.18 1019.40 1019.66 1019.97 1020.32 1020.69 1021.06 1021.41 1021.70 1021.92 1022.04 1022.05 1021.93 1021.71
1011.38 1011.32 1011.29 1011.29 1011.35 1011.48 1011.71 1012.04 1012.48 1013.03 1013.65 1014.33 1015.03 1015.72 1016.36 1016.92 1017.40 1017.78 1018.07 1018.28 1018.41 1018.50 1018.56 1018.60 1018.64 1018.69 1018.75 1018.84 1018.95 1019.10 1019.28 1019.51 1019.78 1020.09 1020.44 1020.81 1021.17 1021.51 1021.80 1022.01 1022.14 1022.15 1022.06 1021.86
1011.89 1011.93 1011.99 1012.08 1012.20 1012.38 1012.62 1012.93 1013.32 1013.77 1014.28 1014.83 1015.39 1015.93 1016.44 1016.90 1017.29 1017.61 1017.88 1018.08 1018.24 1018.37 1018.48 1018.58 1018.68 1018.77 1018.88 1018.99 1019.12 1019.27 1019.44 1019.65 1019.89 1020.16 1020.47 1020.79 1021.11 1021.42 1021.69 1021.90 1022.04 1022.08 1022.02 1021.87
1012.48 1012.62 1012.78 1012.95 1013.14 1013.35 1013.60 1013.88 1014.21 1014.57 1014.96 1015.37 1015.79 1016.20 1016.58 1016.93 1017.24 1017.52 1017.76 1017.98 1018.17 1018.34 1018.51 1018.67 1018.82 1018.97 1019.11 1019.24 1019.36 1019.49 1019.63 1019.78 1019.95 1020.15 1020.38 1020.64 1020.90 1021.17 1021.41 1021.62 1021.76 1021.84 1021.84 1021.75
1013.07 1013.31 1013.56 1013.81 1014.05 1014.30 1014.55 1014.80 1015.07 1015.34 1015.63 1015.92 1016.21 1016.50 1016.78 1017.04 1017.29 1017.53 1017.76 1017.99 1018.21 1018.43 1018.65 1018.86 1019.06 1019.24 1019.40 1019.53 1019.63 1019.72 1019.80 1019.87 1019.96 1020.07 1020.21 1020.38 1020.58 1020.80 1021.01 1021.21 1021.38 1021.51 1021.56 1021.55
1013.55 1013.89 1014.22 1014.53 1014.83 1015.10 1015.35 1015.58 1015.80 1016.01 1016.22 1016.42 1016.62 1016.82 1017.03 1017.23 1017.44 1017.66 1017.88 1018.12 1018.37 1018.63 1018.88 1019.13 1019.36 1019.55 1019.71 1019.82 1019.89 1019.93 1019.93 1019.93 1019.93 1019.95 1020.01 1020.10 1020.23 1020.40 1020.60 1020.80 1020.99 1021.16 1021.28 1021.34
1013.89 1014.29 1014.68 1015.05 1015.38 1015.68 1015.93 1016.15 1016.34 1016.52 1016.68 1016.83 1016.99 1017.15 1017.31 1017.49 1017.68 1017.90 1018.13 1018.38 1018.65 1018.92 1019.20 1019.46 1019.69 1019.88 1020.02 1020.10 1020.13 1020.11 1020.06 1019.98 1019.91 1019.85 1019.83 1019.86 1019.94 1020.08 1020.26 1020.47 1020.68 1020.89 1021.07 1021.20
1014.05 1014.50 1014.94 1015.33 1015.69 1015.99 1016.25 1016.48 1016.67 1016.84 1016.99 1017.14 1017.30 1017.46 1017.63 1017.82 1018.02 1018.25 1018.49 1018.76 1019.03 1019.31 1019.59 1019.83 1020.05 1020.22 1020.33 1020.37 1020.36 1020.29 1020.18 1020.05 1019.92 1019.81 1019.74 1019.73 1019.79 1019.90 1020.08 1020.30 1020.54 1020.78 1021.00 1021.19
1014.08 1014.56 1015.00 1015.41 1015.77 1016.08 1016.35 1016.58 1016.79 1016.99 1017.17 1017.36 1017.55 1017.76 1017.97 1018.20 1018.45 1018.70 1018.97 1019.24 1019.52 1019.78 1020.03 1020.26 1020.44 1020.56 1020.64 1020.64 1020.59 1020.48 1020.34 1020.18 1020.02 1019.89 1019.80 1019.77 1019.82 1019.93 1020.11 1020.34 1020.59 1020.86 1021.11 1021.32
1014.06 1014.54 1014.97 1015.37 1015.72 1016.03 1016.30 1016.55 1016.79 1017.03 1017.27 1017.52 1017.78 1018.06 1018.35 1018.64 1018.93 1019.23 1019.52 1019.80 1020.06 1020.31 1020.52 1020.71 1020.84 1020.92 1020.95 1020.92 1020.84 1020.71 1020.55 1020.38 1020.22 1020.09 1020.01 1019.99 1020.04 1020.16 1020.34 1020.57 1020.83 1021.10 1021.35 1021.56
1014.08 1014.54 1014.95 1015.32 1015.64 1015.93 1016.21 1016.47 1016.74 1017.02 1017.33 1017.66 1018.00 1018.36 1018.73 1019.10 1019.45 1019.78 1020.10 1020.38 1020.63 1020.85 1021.02 1021.16 1021.24 1021.28 1021.27 1021.21 1021.11 1020.98 1020.83 1020.67 1020.53 1020.42 1020.36 1020.36 1020.42 1020.55 1020.73 1020.96 1021.21 1021.47 1021.70 1021.90
1014.22 1014.64 1015.02 1015.35 1015.63 1015.90 1016.16 1016.42 1016.71 1017.04 1017.40 1017.80 1018.22 1018.66 1019.10 1019.53 1019.94 1020.31 1020.64 1020.92 1021.16 1021.34 1021.48 1021.57 1021.62 1021.62 1021.58 1021.51 1021.41 1021.28 1021.15 1021.03 1020.92 1020.84 1020.81 1020.83 1020.91 1021.05 1021.23 1021.45 1021.68 1021.91 1022.11 1022.27
1014.49 1014.89 1015.22 1015.50 1015.74 1015.97 1016.20 1016.46 1016.75 1017.10 1017.50 1017.94 1018.42 1018.92 1019.42 1019.89 1020.34 1020.74 1021.08 1021.36 1021.58 1021.74 1021.85 1021.91 1021.93 1021.91 1021.87 1021.80 1021.71 1021.61 1021.52 1021.43 1021.37 1021.33 1021.33 1021.38 1021.47 1021.61 1021.78 1021.98 1022.19 1022.38 1022.55 1022.68
1014.89 1015.26 1015.55 1015.78 1015.97 1016.15 1016.35 1016.58 1016.86 1017.21 1017.62 1018.08 1018.59 1019.12 1019.64 1020.14 1020.60 1021.01 1021.36 1021.63 1021.84 1021.99 1022.09 1022.14 1022.15 1022.14 1022.11 1022.06 1022.01 1021.96 1021.91 1021.87 1021.85 1021.86 1021.90 1021.96 1022.07 1022.20 1022.37 1022.54 1022.72 1022.89 1023.03 1023.12
1015.35 1015.69 1015.94 1016.13 1016.28 1016.42 1016.57 1016.77 1017.02 1017.35 1017.75 1018.20 1018.70 1019.23 1019.75 1020.25 1020.71 1021.12 1021.46 1021.73 1021.94 1022.09 1022.19 1022.25 1022.29 1022.30 1022.31 1022.31 1022.31 1022.32 1022.32 1022.34 1022.38 1022.42 1022.49 1022.58 1022.69 1022.83 1022.98 1023.14 1023.29 1023.44 1023.56 1023.64
1015.76 1016.08 1016.32 1016.48 1016.59 1016.69 1016.81 1016.98 1017.20 1017.49 1017.86 1018.28 1018.75 1019.25 1019.75 1020.23 1020.67 1021.06 1021.39 1021.66 1021.88 1022.04 1022.17 1022.27 1022.35 1022.42 1022.49 1022.55 1022.62 1022.69 1022.77 1022.85 1022.93 1023.03 1023.12 1023.23 1023.36 1023.49 1023.63 1023.78 1023.93 1024.07 1024.19 1024.28
1016.04 1016.36 1016.58 1016.73 1016.83 1016.92 1017.02 1017.16 1017.36 1017.62 1017.94 1018.33 1018.76 1019.21 1019.67 1020.11 1020.52 1020.89 1021.22 1021.49 1021.72 1021.92 1022.09 1022.24 1022.38 1022.52 1022.67 1022.81 1022.96 1023.11 1023.26 1023.40 1023.54 1023.67 1023.80 1023.93 1024.07 1024.21 1024.35 1024.50 1024.66 1024.80 1024.94 1025.05
Thickness
5685 5700 5707 5706 5705 5702 5695 5698 5698 5706 5704 5695 5695 5690 5687 5681 5671 5666 5662 5658 5650 5641 5632 5622 5613 5606 5598 5590 5582 5575 5568 5563 5558 5554 5550 5545 5539 5533 5526 5520 5515 5509 5503 5497
5668 5686 5695 5697 5703 5704 5696 5693 5695 5700 5685 5679 5682 5677 5673 5669 5664 5656 5650 5643 5635 5625 5615 5605 5597 5589 5581 5573 5564 5556 5551 5548 5544 5541 5537 5530 5524 5519 5512 5504 5497 5492 5487 5482
5646 5667 5674 5672 5691 5694 5695 5694 5688 5674 5659 5665 5660 5658 5655 5654 5652 5645 5637 5629 5619 5607 5597 5588 5579 5572 5564 5555 5548 5542 5537 5534 5530 5526 5522 5516 5510 5503 5495 5488 5482 5477 5473 5468
5635 5641 5631 5666 5690 5684 5676 5668 5665 5661 5655 5653 5647 5642 5637 5637 5634 5627 5618 5608 5596 5585 5575 5567 5561 5554 5547 5540 5534 5529 5524 5521 5517 5513 5508 5502 5496 5488 5481 5474 5468 5463 5460 5454
5617 5620 5633 5657 5660 5665 5657 5638 5642 5641 5641 5641 5639 5631 5614 5611 5609 5602 5592 5582 5572 5563 5556 5549 5542 5537 5531 5526 5522 5518 5514 5510 5506 5502 5496 5489 5481 5474 5467 5462 5457 5451 5446 5440
5607 5604 5608 5620 5634 5647 5641 5618 5621 5625 5624 5625 5625 5616 5593 5587 5581 5573 5565 5558 5551 5545 5539 5533 5527 5523 5519 5516 5512 5509 5505 5500 5496 5490 5483 5477 5468 5461 5455 5450 5444 5439 5433 5428
5598 5597 5609 5604 5623 5627 5607 5594 5607 5612 5612 5611 5602 5589 5575 5567 5559 5552 5546 5540 5535 5530 5524 5519 5515 5512 5510 5508 5504 5500 5496 5491 5484 5477 5471 5465 5457 5450 5444 5438 5432 5426 5421 5417
5592 5586 5586 5594 5605 5595 5588 5598 5600 5601 5600 5593 5578 5566 5557 5549 5542 5536 5530 5525 5521 5517 5513 5510 5508 5506 5504 5501 5497 5492 5486 5480 5473 5465 5459 5452 5445 5439 5432 5425 5420 5414 5409 5406
5580 5576 5583 5590 5589 5591 5593 5590 5591 5590 5587 5577 5563 5552 5544 5535 5529 5523 5519 5514 5511 5510 5509 5507 5504 5500 5497 5493 5488 5482 5475 5469 5462 5455 5447 5440 5434 5427 5420 5413 5407 5401 5396 5394
5579 5583 5584 5583 5583 5583 5583 5580 5580 5579 5575 5565 5552 5542 5533 5525 5519 5514 5510 5508 5507 5508 5507 5503 5499 5494 5489 5484 5478 5471 5465 5460 5454 5447 5439 5429 5422 5415 5407 5400 5394 5389 5385 5382
5569 5574 5575 5574 5569 5570 5570 5569 5567 5564 5559 5549 5540 5531 5523 5516 5511 5509 5508 5509 5508 5505 5502 5497 5492 5486 5480 5474 5468 5463 5458 5453 5446 5438 5429 5419 5409 5400 5396 5388 5382 5379 5376 5373
5556 5558 5554 5555 5557 5558 5556 5553 5549 5543 5536 5530 5525 5520 5515 5511 5510 5510 5510 5508 5505 5501 5496 5490 5484 5478 5472 5466 5460 5455 5450 5445 5437 5428 5419 5412 5404 5396 5388 5384 5378 5374 5370 5367
5546 5547 5544 5543 5544 5544 5540 5536 5531 5526 5520 5516 5513 5512 5512 5512 5512 5511 5508 5504 5499 5494 5489 5484 5477 5471 5465 5459 5453 5446 5440 5433 5427 5420 5413 5406 5401 5395 5389 5381 5375 5371 5368 5367
5535 5536 5531 5528 5527 5527 5525 5521 5516 5513 5510 5510 5510 5511 5512 5511 5508 5506 5503 5499 5495 5490 5484 5478 5471 5464 5458 5451 5445 5439 5433 5425 5421 5415 5409 5403 5397 5392 5386 5381 5376 5373 5369 5367
5523 5522 5518 5515 5514 5513 5512 5510 5508 5506 5507 5508 5509 5508 5507 5505 5503 5501 5499 5496 5492 5486 5480 5473 5465 5458 5451 5443 5436 5430 5426 5421 5416 5412 5407 5401 5395 5389 5383 5378 5374 5371 5370 5369
5517 5514 5512 5509 5507 5506 5506 5506 5506 5506 5506 5505 5505 5504 5503 5502 5500 5499 5496 5493 5488 5481 5474 5467 5460 5454 5447 5439 5431 5425 5419 5411 5410 5409 5405 5400 5395 5389 5383 5377 5373 5370 5369 5367
5517 5513 5511 5509 5506 5505 5505 5506 5507 5506 5505 5504 5503 5502 5501 5500 5497 5494 5491 5488 5482 5476 5470 5463 5457 5450 5443 5436 5430 5425 5420 5414 5405 5406 5401 5397 5394 5390 5385 5380 5375 5372 5369 5364
5524 5520 5516 5514 5512 5510 5509 5509 5509 5507 5505 5504 5503 5501 5499 5496 5493 5490 5487 5483 5478 5472 5466 5459 5451 5445 5438 5431 5426 5423 5419 5414 5409 5405 5399 5393 5391 5389 5385 5381 5377 5374 5371 5367
5529 5526 5523 5520 5518 5516 5514 5511 5509 5507 5505 5504 5501 5499 5497 5494 5492 5489 5486 5482 5475 5467 5459 5452 5445 5441 5435 5429 5422 5422 5418 5414 5408 5403 5399 5393 5390 5387 5383 5380 5377 5374 5372 5369
5531 5529 5527 5524 5521 5517 5514 5511 5509 5506 5504 5502 5500 5497 5495 5493 5492 5490 5486 5481 5474 5467 5460 5453 5448 5441 5436 5430 5423 5424 5417 5411 5405 5400 5396 5392 5389 5385 5382 5379 5376 5374 5373 5371
5529 5529 5527 5523 5519 5516 5513 5510 5508 5506 5504 5502 5499 5496 5494 5493 5491 5488 5484 5477 5470 5466 5461 5452 5448 5442 5435 5428 5427 5424 5418 5411 5404 5399 5395 5391 5388 5385 5382 5379 5377 5375 5374 5373
5528 5526 5524 5520 5516 5513 5511 5510 5508 5506 5504 5501 5499 5497 5496 5494 5492 5488 5483 5477 5471 5465 5464 5457 5447 5438 5434 5430 5432 5426 5419 5412 5406 5401 5397 5393 5389 5386 5383 5381 5379 5378 5377 5377
5523 5522 5520 5517 5514 5512 5511 5510 5509 5506 5503 5501 5499 5498 5498 5497 5494 5489 5483 5478 5474 5468 5463 5455 5445 5441 5435 5439 5435 5428 5421 5415 5410 5405 5401 5397 5393 5389 5386 5384 5382 5381 5380 5380
5518 5517 5516 5514 5512 5511 5510 5509 5508 5506 5504 5503 5501 5501 5500 5499 5495 5488 5481 5475 5472 5469 5463 5455 5449 5446 5441 5443 5436 5430 5424 5419 5415 5409 5404 5401 5397 5392 5389 5387 5385 5383 5382 5382
5514 5513 5512 5511 5510 5509 5508 5508 5507 5506 5506 5505 5503 5503 5504 5502 5496 5490 5483 5476 5471 5470 5466 5461 5456 5453 5451 5447 5441 5434 5428 5422 5418 5414 5409 5405 5400 5396 5392 5389 5386 5384 5382 5381
5510 5509 5508 5508 5508 5508 5508 5508 5508 5508 5507 5506 5506 5506 5503 5500 5494 5489 5484 5481 5477 5474 5473 5470 5468 5461 5459 5452 5446 5441 5436 5431 5427 5420 5415 5411 5406 5401 5396 5392 5389 5385 5381 5379
5506 5506 5504 5505 5505 5507 5508 5509 5509 5509 5509 5508 5506 5505 5503 5501 5498 5494 5489 5485 5483 5482 5482 5479 5474 5469 5463 5458 5452 5447 5442 5437 5432 5427 5423 5418 5413 5408 5403 5397 5392 5388 5384 5378